Notices

What's New in latest Release from April 7th, 2021:

- Updated Glossary, including Speed of Maximum Gust, and Total Hourly Precipitation

- Updated national and regional climate services offices contacts and prices information

- Addition of station inventory lists for 1981-2010, 1971-2000, and 1961-1990 Normals.

If you haven't already, please take our survey and provide feedback about our website: https://eccc.sondage-survey.ca/f/LanguageSelection.aspx?s=442ca660-fcf1-47c0-95a9-59707d6fd709

Hourly Data Report for August 07, 2020

TORONTO CITY
ONTARIO
Current Station Operator: ECCC - MSC

43°40'00.000" N
79°24'00.000" W
112.50 m
6158355
71508
XTO

Download Data

Hourly Data (August 2020)
Hourly Data Report for August 7, 2020
TIME
LST
Temp Definition
°C
Dew Point Definition
°C
Rel Hum Definition
%
Precip. Amount Definition
mm

Wind Dir Definition
10's deg

Wind Spd Definition
km/h
Visibility Definition
km
Stn Press Definition
kPa
Hmdx Definition


Wind Chill Definition


Weather Definition


00:00 19.3 10.4 56 0.0       100.68     LegendNANA
01:00 17.9 10.7 63 0.0       100.69     LegendNANA
02:00 17.7 10.8 64 0.0       100.67     LegendNANA
03:00 17.1 10.5 65 0.0       100.69     LegendNANA
04:00 16.8 10.8 68 0.0       100.70     LegendNANA
05:00 17.0 10.9 67 0.0       100.75     LegendNANA
06:00 16.8 11.0 69 0.0       100.78     LegendNANA
07:00 18.8 10.7 59 0.0       100.81     LegendNANA
08:00 20.9 11.4 55 0.0       100.83     LegendNANA
09:00 22.2 11.2 50 0.0       100.82     LegendNANA
10:00 23.5 10.8 45 0.0       100.83 25   LegendNANA
11:00 23.9 10.3 42 0.0       100.83 25   LegendNANA
12:00 23.8 9.8 41 0.0       100.82 25   LegendNANA
13:00 24.7 10.7 41 0.0       100.77 26   LegendNANA
14:00 25.1 11.2 42 0.0       100.75 27   LegendNANA
15:00 24.8 11.6 44 0.0       100.69 27   LegendNANA
16:00 24.4 8.1 35 0.0       100.67 25   LegendNANA
17:00 23.6 6.4 33 0.0       100.65     LegendNANA
18:00 23.4 8.1 37 0.0       100.63     LegendNANA
19:00 22.4 7.9 39 0.0       100.67     LegendNANA
20:00 20.6 10.5 52 0.0       100.69     LegendNANA
21:00 20.1 10.9 55 0.0       100.71     LegendNANA
22:00 19.7 11.2 58 0.0       100.73     LegendNANA
23:00 19.3 11.5 60 0.0       100.75     LegendNANA

Notes on Data Quality.

Legend

  • E = Estimated
  • M = Missing
  • NA = Not Available*
  • [empty] = Indicates an unobserved value
Date modified: